Location: Asheville, NC
(35.6000°N, 82.5500°W)
Time: 19:46:31
(UTC-04:00)

Vanguard 1 - Pass Details

Date: 12 March 2018
Orbit: 650 x 3833 km, 34.3° (Epoch: 23 June)

Event Time Altitude Azimuth Distance (km) Brightness Sun altitude
Rises 07:28:11 0° 199° (SSW) 6,514 14.1 -4.3°
Reaches altitude 10° 07:32:53 10° 189° (S) 5,904 14.0 -3.3°
Maximum altitude 07:49:13 32° 134° (SE) 5,156 14.4 0.0°
Drops below altitude 10° 08:07:46 10° 82° (E) 6,793 16.2 3.8°
Sets 08:13:35 0° 74° (ENE) 7,595 16.0 4.9°
